Time,TemperatureF,DewpointF,PressureIn,WindDirection,WindDirectionDegrees,WindSpeedMPH,WindSpeedGustMPH,Humidity,HourlyPrecipIn,Conditions,Clouds,dailyrainin,SoftwareType,DateUTC
2013-10-04 00:00:00,55.7,52.1,30.02,North,0,0.0,0.0,89,-99.99,,,-99.99,PWS SA v1.10,2013-10-04 04:00:00,
2013-10-04 00:38:00,55.5,52.3,30.01,North,0,0.0,0.0,90,-99.99,,,-99.99,PWS SA v1.10,2013-10-04 04:38:00,
2013-10-04 00:40:00,55.6,52.5,30.01,North,0,0.0,0.0,91,-99.99,,,-99.99,PWS SA v1.10,2013-10-04 04:40:00,
2013-10-04 00:42:00,55.5,52.5,30.01,North,0,0.0,0.0,91,-99.99,,,-99.99,PWS SA v1.10,2013-10-04 04:42:00,
2013-10-04 00:44:00,55.5,52.4,30.01,North,0,0.0,0.0,90,-99.99,,,-99.99,PWS SA v1.10,2013-10-04 04:44:00,
2013-10-04 00:48:00,55.4,52.1,30.01,North,0,0.0,0.0,90,-99.99,,,-99.99,PWS SA v1.10,2013-10-04 04:48:00,
2013-10-04 00:50:00,55.4,52.0,30.01,North,0,0.0,0.0,90,-99.99,,,-99.99,PWS SA v1.10,2013-10-04 04:50:00,
2013-10-04 00:56:00,55.1,52.3,30.02,North,0,0.0,0.0,91,-99.99,,,-99.99,PWS SA v1.10,2013-10-04 04:56:00,
2013-10-04 00:58:00,55.1,52.2,30.02,North,0,0.0,0.0,92,-99.99,,,-99.99,PWS SA v1.10,2013-10-04 04:58:00,
2013-10-04 01:00:00,55.1,52.4,30.01,North,0,0.0,0.0,92,-99.99,,,-99.99,PWS SA v1.10,2013-10-04 05:00:00,
2013-10-04 01:06:00,55.2,52.5,30.02,North,0,0.0,0.0,92,-99.99,,,-99.99,PWS SA v1.10,2013-10-04 05:06:00,
2013-10-04 01:08:00,55.2,52.5,30.02,North,0,0.0,0.0,92,-99.99,,,-99.99,PWS SA v1.10,2013-10-04 05:08:00,
2013-10-04 01:14:00,55.4,52.6,30.02,North,0,0.0,0.0,92,-99.99,,,-99.99,PWS SA v1.10,2013-10-04 05:14:00,
2013-10-04 01:16:00,55.4,52.5,30.02,North,0,0.0,0.0,92,-99.99,,,-99.99,PWS SA v1.10,2013-10-04 05:16:00,
2013-10-04 01:20:00,55.4,52.6,30.02,North,0,0.0,0.0,92,-99.99,,,-99.99,PWS SA v1.10,2013-10-04 05:20:00,
2013-10-04 01:22:00,55.4,52.9,30.02,North,0,0.0,0.0,92,-99.99,,,-99.99,PWS SA v1.10,2013-10-04 05:22:00,
2013-10-04 01:28:00,55.5,52.8,30.01,North,0,0.0,0.0,92,-99.99,,,-99.99,PWS SA v1.10,2013-10-04 05:28:00,
2013-10-04 01:32:00,55.6,52.7,30.01,North,0,0.0,0.0,91,-99.99,,,-99.99,PWS SA v1.10,2013-10-04 05:32:00,
2013-10-04 01:38:00,55.7,53.2,30.01,North,0,0.0,0.0,92,-99.99,,,-99.99,PWS SA v1.10,2013-10-04 05:38:00,
2013-10-04 01:40:00,55.7,52.8,30.00,North,0,0.0,0.0,92,-99.99,,,-99.99,PWS SA v1.10,2013-10-04 05:40:00,
2013-10-04 01:46:00,55.6,52.8,30.01,North,0,0.0,0.0,92,-99.99,,,-99.99,PWS SA v1.10,2013-10-04 05:46:00,
2013-10-04 01:52:00,55.5,52.8,30.01,North,0,0.0,0.0,92,-99.99,,,-99.99,PWS SA v1.10,2013-10-04 05:52:00,
2013-10-04 01:58:00,55.6,52.8,30.01,North,0,0.0,0.0,92,-99.99,,,-99.99,PWS SA v1.10,2013-10-04 05:58:00,
2013-10-04 02:04:00,55.5,52.9,30.02,North,0,0.0,0.0,92,-99.99,,,-99.99,PWS SA v1.10,2013-10-04 06:04:00,
2013-10-04 02:10:00,55.4,52.9,30.01,North,0,0.0,0.0,92,-99.99,,,-99.99,PWS SA v1.10,2013-10-04 06:10:00,
2013-10-04 02:16:00,55.4,52.8,30.01,North,0,0.0,0.0,92,-99.99,,,-99.99,PWS SA v1.10,2013-10-04 06:16:00,
2013-10-04 02:22:00,55.4,52.9,30.01,North,0,0.0,0.0,92,-99.99,,,-99.99,PWS SA v1.10,2013-10-04 06:22:00,
2013-10-04 02:28:00,55.4,52.6,30.02,North,0,0.0,0.0,92,-99.99,,,-99.99,PWS SA v1.10,2013-10-04 06:28:00,
2013-10-04 02:34:00,55.4,52.6,30.02,North,0,0.0,0.0,92,-99.99,,,-99.99,PWS SA v1.10,2013-10-04 06:34:00,
2013-10-04 02:42:00,55.4,52.6,30.01,North,0,0.0,0.0,92,-99.99,,,-99.99,PWS SA v1.10,2013-10-04 06:42:00,
2013-10-04 02:48:00,55.5,52.8,30.01,North,0,0.0,0.0,92,-99.99,,,-99.99,PWS SA v1.10,2013-10-04 06:48:00,
2013-10-04 02:56:00,55.4,52.5,30.01,North,0,0.0,0.0,92,-99.99,,,-99.99,PWS SA v1.10,2013-10-04 06:56:00,
2013-10-04 03:02:00,55.6,52.9,30.00,North,0,0.0,0.0,92,-99.99,,,-99.99,PWS SA v1.10,2013-10-04 07:02:00,
2013-10-04 03:08:00,55.7,53.0,30.00,North,0,0.0,0.0,92,-99.99,,,-99.99,PWS SA v1.10,2013-10-04 07:08:00,
2013-10-04 03:14:00,55.7,52.9,30.00,North,0,0.0,0.0,91,-99.99,,,-99.99,PWS SA v1.10,2013-10-04 07:14:00,
2013-10-04 03:20:00,55.9,53.1,30.00,North,0,0.0,0.0,91,-99.99,,,-99.99,PWS SA v1.10,2013-10-04 07:20:00,
2013-10-04 03:26:00,55.9,53.0,30.00,North,0,0.0,0.0,91,-99.99,,,-99.99,PWS SA v1.10,2013-10-04 07:26:00,
2013-10-04 03:32:00,55.9,52.7,30.00,North,0,0.0,0.0,91,-99.99,,,-99.99,PWS SA v1.10,2013-10-04 07:32:00,
2013-10-04 03:38:00,55.7,52.7,30.00,North,0,0.0,0.0,91,-99.99,,,-99.99,PWS SA v1.10,2013-10-04 07:38:00,
2013-10-04 03:44:00,55.7,53.1,30.00,North,0,0.0,0.0,92,-99.99,,,-99.99,PWS SA v1.10,2013-10-04 07:44:00,
2013-10-04 03:50:00,55.7,52.6,30.01,North,0,0.0,0.0,91,-99.99,,,-99.99,PWS SA v1.10,2013-10-04 07:50:00,
2013-10-04 03:56:00,55.7,52.7,30.00,North,0,0.0,0.0,91,-99.99,,,-99.99,PWS SA v1.10,2013-10-04 07:56:00,
2013-10-04 04:02:00,55.7,52.8,30.01,North,0,0.0,0.0,91,-99.99,,,-99.99,PWS SA v1.10,2013-10-04 08:02:00,
2013-10-04 04:10:00,55.8,53.3,30.00,North,0,0.0,0.0,92,-99.99,,,-99.99,PWS SA v1.10,2013-10-04 08:10:00,
2013-10-04 04:16:00,55.7,52.9,30.00,North,0,0.0,0.0,91,-99.99,,,-99.99,PWS SA v1.10,2013-10-04 08:16:00,
2013-10-04 04:22:00,55.5,52.7,30.01,North,0,0.0,0.0,92,-99.99,,,-99.99,PWS SA v1.10,2013-10-04 08:22:00,
2013-10-04 04:28:00,55.2,52.8,30.00,North,0,0.0,0.0,92,-99.99,,,-99.99,PWS SA v1.10,2013-10-04 08:28:00,
2013-10-04 04:34:00,55.1,52.4,30.01,North,0,0.0,0.0,92,-99.99,,,-99.99,PWS SA v1.10,2013-10-04 08:34:00,
2013-10-04 04:40:00,55.0,52.3,30.01,North,0,0.0,0.0,92,-99.99,,,-99.99,PWS SA v1.10,2013-10-04 08:40:00,
2013-10-04 04:46:00,54.7,52.4,30.01,North,0,0.0,0.0,93,-99.99,,,-99.99,PWS SA v1.10,2013-10-04 08:46:00,
2013-10-04 04:52:00,54.5,52.3,30.01,North,0,0.0,0.0,93,-99.99,,,-99.99,PWS SA v1.10,2013-10-04 08:52:00,
2013-10-04 04:58:00,54.2,52.2,30.01,North,0,0.0,0.0,94,-99.99,,,-99.99,PWS SA v1.10,2013-10-04 08:58:00,
2013-10-04 05:04:00,53.9,52.1,30.01,North,0,0.0,0.0,94,-99.99,,,-99.99,PWS SA v1.10,2013-10-04 09:04:00,
2013-10-04 05:10:00,53.7,51.8,30.00,North,0,0.0,0.0,93,-99.99,,,-99.99,PWS SA v1.10,2013-10-04 09:10:00,
2013-10-04 05:16:00,53.3,51.6,30.01,North,0,0.0,0.0,95,-99.99,,,-99.99,PWS SA v1.10,2013-10-04 09:16:00,
2013-10-04 05:22:00,53.2,51.6,30.01,North,0,0.0,0.0,95,-99.99,,,-99.99,PWS SA v1.10,2013-10-04 09:22:00,
2013-10-04 05:28:00,52.9,51.3,30.01,North,0,0.0,0.0,96,-99.99,,,-99.99,PWS SA v1.10,2013-10-04 09:28:00,
2013-10-04 05:34:00,52.7,51.3,30.01,North,0,0.0,0.0,96,-99.99,,,-99.99,PWS SA v1.10,2013-10-04 09:34:00,
2013-10-04 05:40:00,52.7,51.5,30.01,North,0,0.0,0.0,97,-99.99,,,-99.99,PWS SA v1.10,2013-10-04 09:40:00,
2013-10-04 05:46:00,52.6,51.4,30.01,North,0,0.0,0.0,97,-99.99,,,-99.99,PWS SA v1.10,2013-10-04 09:46:00,
2013-10-04 05:52:00,52.7,51.7,30.01,North,0,0.0,0.0,97,-99.99,,,-99.99,PWS SA v1.10,2013-10-04 09:52:00,
2013-10-04 05:58:00,52.5,51.7,30.01,North,0,0.0,0.0,97,-99.99,,,-99.99,PWS SA v1.10,2013-10-04 09:58:00,
2013-10-04 06:04:00,52.4,51.4,30.01,North,0,0.0,0.0,97,-99.99,,,-99.99,PWS SA v1.10,2013-10-04 10:04:00,
2013-10-04 06:10:00,52.2,51.4,30.01,North,0,0.0,0.0,98,-99.99,,,-99.99,PWS SA v1.10,2013-10-04 10:10:00,
2013-10-04 06:16:00,52.1,51.4,30.01,North,0,0.0,0.0,98,-99.99,,,-99.99,PWS SA v1.10,2013-10-04 10:16:00,
2013-10-04 06:22:00,52.1,51.2,30.01,North,0,0.0,0.0,97,-99.99,,,-99.99,PWS SA v1.10,2013-10-04 10:22:00,
2013-10-04 06:28:00,52.1,51.4,30.01,North,0,0.0,0.0,97,-99.99,,,-99.99,PWS SA v1.10,2013-10-04 10:28:00,
2013-10-04 06:34:00,52.0,51.1,30.01,North,0,0.0,0.0,97,-99.99,,,-99.99,PWS SA v1.10,2013-10-04 10:34:00,
2013-10-04 06:40:00,51.9,51.1,30.01,North,0,0.0,0.0,98,-99.99,,,-99.99,PWS SA v1.10,2013-10-04 10:40:00,
2013-10-04 06:46:00,51.9,51.1,30.02,North,0,0.0,0.0,98,-99.99,,,-99.99,PWS SA v1.10,2013-10-04 10:46:00,
2013-10-04 06:52:00,51.8,50.8,30.02,North,0,0.0,0.0,98,-99.99,,,-99.99,PWS SA v1.10,2013-10-04 10:52:00,
2013-10-04 06:58:00,51.7,51.1,30.02,North,0,0.0,0.0,97,-99.99,,,-99.99,PWS SA v1.10,2013-10-04 10:58:00,
2013-10-04 07:04:00,51.8,50.8,30.02,North,0,0.0,0.0,97,-99.99,,,-99.99,PWS SA v1.10,2013-10-04 11:04:00,
2013-10-04 07:10:00,51.7,51.0,30.02,North,0,0.0,0.0,98,-99.99,,,-99.99,PWS SA v1.10,2013-10-04 11:10:00,
2013-10-04 07:16:00,51.8,51.3,30.02,North,0,0.0,0.0,98,-99.99,,,-99.99,PWS SA v1.10,2013-10-04 11:16:00,
2013-10-04 07:22:00,52.0,51.4,30.03,North,0,0.0,0.0,98,-99.99,,,-99.99,PWS SA v1.10,2013-10-04 11:22:00,
2013-10-04 07:28:00,52.0,51.4,30.02,North,0,0.0,0.0,98,-99.99,,,-99.99,PWS SA v1.10,2013-10-04 11:28:00,
2013-10-04 07:34:00,52.3,51.7,30.02,North,0,0.0,0.0,98,-99.99,,,-99.99,PWS SA v1.10,2013-10-04 11:34:00,
2013-10-04 07:40:00,52.4,51.6,30.02,North,0,0.0,0.0,98,-99.99,,,-99.99,PWS SA v1.10,2013-10-04 11:40:00,
2013-10-04 07:46:00,52.8,51.8,30.02,North,0,0.0,0.0,98,-99.99,,,-99.99,PWS SA v1.10,2013-10-04 11:46:00,
2013-10-04 07:52:00,52.9,51.9,30.02,North,0,0.0,0.0,97,-99.99,,,-99.99,PWS SA v1.10,2013-10-04 11:52:00,
2013-10-04 07:58:00,53.3,52.4,30.03,North,0,0.0,0.0,97,-99.99,,,-99.99,PWS SA v1.10,2013-10-04 11:58:00,
2013-10-04 08:04:00,53.3,52.1,30.03,North,0,0.0,0.0,97,-99.99,,,-99.99,PWS SA v1.10,2013-10-04 12:04:00,
2013-10-04 08:10:00,54.1,52.9,30.03,North,0,0.0,0.0,97,-99.99,,,-99.99,PWS SA v1.10,2013-10-04 12:10:00,
2013-10-04 08:16:00,55.0,53.2,30.03,North,0,0.0,0.0,96,-99.99,,,-99.99,PWS SA v1.10,2013-10-04 12:16:00,
2013-10-04 08:22:00,55.5,53.8,30.03,North,0,0.0,0.0,95,-99.99,,,-99.99,PWS SA v1.10,2013-10-04 12:22:00,
2013-10-04 08:28:00,56.1,54.0,30.04,North,0,0.0,0.0,94,-99.99,,,-99.99,PWS SA v1.10,2013-10-04 12:28:00,
2013-10-04 08:34:00,56.4,54.3,30.03,North,0,0.0,0.0,94,-99.99,,,-99.99,PWS SA v1.10,2013-10-04 12:34:00,
2013-10-04 08:40:00,56.9,54.3,30.03,North,0,0.0,0.0,93,-99.99,,,-99.99,PWS SA v1.10,2013-10-04 12:40:00,
2013-10-04 08:46:00,57.5,55.1,30.03,North,0,0.0,0.0,93,-99.99,,,-99.99,PWS SA v1.10,2013-10-04 12:46:00,
2013-10-04 08:52:00,57.8,54.8,30.03,North,0,0.0,0.0,91,-99.99,,,-99.99,PWS SA v1.10,2013-10-04 12:52:00,
2013-10-04 08:58:00,58.2,55.0,30.03,North,0,0.0,0.0,91,-99.99,,,-99.99,PWS SA v1.10,2013-10-04 12:58:00,
2013-10-04 09:04:00,58.7,55.1,30.04,North,0,0.0,0.0,90,-99.99,,,-99.99,PWS SA v1.10,2013-10-04 13:04:00,
2013-10-04 09:10:00,59.0,55.6,30.04,North,0,0.0,0.0,90,-99.99,,,-99.99,PWS SA v1.10,2013-10-04 13:10:00,
2013-10-04 09:16:00,59.3,55.8,30.04,North,0,0.0,0.0,89,-99.99,,,-99.99,PWS SA v1.10,2013-10-04 13:16:00,
2013-10-04 09:22:00,59.7,56.2,30.03,North,0,0.0,0.0,90,-99.99,,,-99.99,PWS SA v1.10,2013-10-04 13:22:00,
2013-10-04 09:28:00,59.9,56.8,30.04,North,0,0.0,0.0,91,-99.99,,,-99.99,PWS SA v1.10,2013-10-04 13:28:00,
2013-10-04 09:34:00,60.2,57.1,30.04,North,0,0.0,0.0,91,-99.99,,,-99.99,PWS SA v1.10,2013-10-04 13:34:00,
2013-10-04 09:40:00,60.5,57.1,30.04,North,0,0.0,0.0,90,-99.99,,,-99.99,PWS SA v1.10,2013-10-04 13:40:00,
2013-10-04 09:46:00,60.6,56.7,30.04,North,0,0.0,0.0,88,-99.99,,,-99.99,PWS SA v1.10,2013-10-04 13:46:00,
2013-10-04 09:52:00,60.7,56.6,30.04,North,0,0.0,0.0,87,-99.99,,,-99.99,PWS SA v1.10,2013-10-04 13:52:00,
2013-10-04 09:58:00,60.6,56.7,30.04,North,0,0.0,0.0,88,-99.99,,,-99.99,PWS SA v1.10,2013-10-04 13:58:00,
2013-10-04 10:04:00,60.5,56.5,30.03,North,0,0.0,0.0,89,-99.99,,,-99.99,PWS SA v1.10,2013-10-04 14:04:00,
2013-10-04 10:10:00,60.6,56.8,30.03,North,0,0.0,0.0,90,-99.99,,,-99.99,PWS SA v1.10,2013-10-04 14:10:00,
2013-10-04 10:16:00,60.6,57.0,30.03,North,0,0.0,0.0,90,-99.99,,,-99.99,PWS SA v1.10,2013-10-04 14:16:00,
2013-10-04 10:22:00,60.9,57.6,30.03,North,0,0.0,0.0,90,-99.99,,,-99.99,PWS SA v1.10,2013-10-04 14:22:00,
2013-10-04 10:28:00,61.3,57.8,30.03,North,0,0.0,0.0,90,-99.99,,,-99.99,PWS SA v1.10,2013-10-04 14:28:00,
2013-10-04 10:34:00,61.6,57.9,30.03,North,0,0.0,0.0,89,-99.99,,,-99.99,PWS SA v1.10,2013-10-04 14:34:00,
2013-10-04 10:40:00,61.4,56.9,30.03,North,0,0.0,0.0,88,-99.99,,,-99.99,PWS SA v1.10,2013-10-04 14:40:00,
2013-10-04 10:46:00,61.3,57.2,30.03,North,0,0.0,0.0,87,-99.99,,,-99.99,PWS SA v1.10,2013-10-04 14:46:00,
2013-10-04 10:52:00,61.2,57.5,30.04,North,0,0.0,0.0,88,-99.99,,,-99.99,PWS SA v1.10,2013-10-04 14:52:00,
2013-10-04 10:58:00,61.1,57.1,30.04,North,0,0.0,0.0,87,-99.99,,,-99.99,PWS SA v1.10,2013-10-04 14:58:00,
2013-10-04 11:04:00,61.1,56.8,30.04,North,0,0.0,0.0,86,-99.99,,,-99.99,PWS SA v1.10,2013-10-04 15:04:00,
2013-10-04 11:10:00,61.1,56.5,30.04,North,0,0.0,0.0,86,-99.99,,,-99.99,PWS SA v1.10,2013-10-04 15:10:00,
2013-10-04 11:16:00,61.2,56.5,30.04,North,0,0.0,0.0,86,-99.99,,,-99.99,PWS SA v1.10,2013-10-04 15:16:00,
2013-10-04 11:22:00,60.9,57.6,30.05,North,0,0.0,0.0,89,-99.99,,,-99.99,PWS SA v1.10,2013-10-04 15:22:00,
2013-10-04 11:28:00,60.7,58.2,30.05,North,0,0.0,0.0,92,-99.99,,,-99.99,PWS SA v1.10,2013-10-04 15:28:00,
2013-10-04 11:30:00,60.7,58.2,30.05,North,0,0.0,0.0,92,-99.99,,,-99.99,PWS SA v1.10,2013-10-04 15:30:00,
2013-10-04 11:36:00,60.0,58.8,30.03,North,0,0.0,0.0,96,-99.99,,,-99.99,PWS SA v1.10,2013-10-04 15:36:00,
2013-10-04 11:42:00,59.9,58.7,30.04,North,0,0.0,0.0,97,-99.99,,,-99.99,PWS SA v1.10,2013-10-04 15:42:00,
2013-10-04 11:48:00,59.9,59.0,30.04,North,0,0.0,0.0,97,-99.99,,,-99.99,PWS SA v1.10,2013-10-04 15:48:00,
2013-10-04 11:54:00,59.7,59.1,30.04,North,0,0.0,0.0,98,-99.99,,,-99.99,PWS SA v1.10,2013-10-04 15:54:00,
2013-10-04 12:00:00,59.9,59.1,30.04,North,0,0.0,0.0,98,-99.99,,,-99.99,PWS SA v1.10,2013-10-04 16:00:00,
2013-10-04 12:06:00,60.0,59.3,30.05,North,0,0.0,0.0,99,-99.99,,,-99.99,PWS SA v1.10,2013-10-04 16:06:00,
2013-10-04 12:12:00,60.3,59.7,30.04,North,0,0.0,0.0,99,-99.99,,,-99.99,PWS SA v1.10,2013-10-04 16:12:00,
2013-10-04 12:18:00,60.4,59.4,30.04,North,0,0.0,0.0,97,-99.99,,,-99.99,PWS SA v1.10,2013-10-04 16:18:00,
2013-10-04 12:24:00,60.1,59.1,30.04,North,0,0.0,0.0,97,-99.99,,,-99.99,PWS SA v1.10,2013-10-04 16:24:00,
2013-10-04 12:30:00,60.1,58.9,30.04,North,0,0.0,0.0,96,-99.99,,,-99.99,PWS SA v1.10,2013-10-04 16:30:00,
2013-10-04 12:36:00,60.1,58.9,30.04,North,0,0.0,0.0,96,-99.99,,,-99.99,PWS SA v1.10,2013-10-04 16:36:00,
2013-10-04 12:42:00,60.2,58.9,30.04,North,0,0.0,0.0,97,-99.99,,,-99.99,PWS SA v1.10,2013-10-04 16:42:00,
2013-10-04 12:48:00,60.3,59.0,30.04,North,0,0.0,0.0,97,-99.99,,,-99.99,PWS SA v1.10,2013-10-04 16:48:00,
2013-10-04 12:54:00,60.4,59.5,30.04,North,0,0.0,0.0,97,-99.99,,,-99.99,PWS SA v1.10,2013-10-04 16:54:00,
2013-10-04 13:00:00,60.2,58.9,30.04,North,0,0.0,0.0,98,-99.99,,,-99.99,PWS SA v1.10,2013-10-04 17:00:00,
2013-10-04 13:06:00,60.5,60.0,30.03,North,0,0.0,0.0,99,-99.99,,,-99.99,PWS SA v1.10,2013-10-04 17:06:00,
2013-10-04 13:12:00,60.4,59.6,30.02,North,0,0.0,0.0,99,-99.99,,,-99.99,PWS SA v1.10,2013-10-04 17:12:00,
2013-10-04 13:18:00,60.5,60.0,30.02,North,0,0.0,0.0,99,-99.99,,,-99.99,PWS SA v1.10,2013-10-04 17:18:00,
2013-10-04 13:24:00,60.8,60.2,30.02,North,0,0.0,0.0,99,-99.99,,,-99.99,PWS SA v1.10,2013-10-04 17:24:00,
2013-10-04 13:30:00,60.6,60.1,30.02,North,0,0.0,0.0,98,-99.99,,,-99.99,PWS SA v1.10,2013-10-04 17:30:00,
2013-10-04 13:36:00,60.8,60.1,30.03,North,0,0.0,0.0,98,-99.99,,,-99.99,PWS SA v1.10,2013-10-04 17:36:00,
2013-10-04 14:00:00,60.2,59.9,30.00,North,0,0.0,0.0,100,-99.99,,,-99.99,PWS SA v1.10,2013-10-04 18:00:00,
2013-10-04 14:06:00,60.6,60.2,30.00,North,0,0.0,0.0,100,-99.99,,,-99.99,PWS SA v1.10,2013-10-04 18:06:00,
2013-10-04 14:12:00,61.2,61.0,30.01,North,0,0.0,0.0,100,-99.99,,,-99.99,PWS SA v1.10,2013-10-04 18:12:00,
2013-10-04 14:18:00,61.5,60.9,30.01,North,0,0.0,0.0,98,-99.99,,,-99.99,PWS SA v1.10,2013-10-04 18:18:00,
2013-10-04 14:24:00,61.8,60.9,30.01,North,0,0.0,0.0,99,-99.99,,,-99.99,PWS SA v1.10,2013-10-04 18:24:00,
2013-10-04 14:30:00,62.2,61.0,30.01,North,0,0.0,0.0,97,-99.99,,,-99.99,PWS SA v1.10,2013-10-04 18:30:00,
2013-10-04 14:36:00,62.7,60.8,30.00,North,0,0.0,0.0,94,-99.99,,,-99.99,PWS SA v1.10,2013-10-04 18:36:00,
2013-10-04 14:42:00,62.7,60.5,30.00,North,0,0.0,0.0,94,-99.99,,,-99.99,PWS SA v1.10,2013-10-04 18:42:00,
2013-10-04 14:48:00,63.2,60.6,30.01,North,0,0.0,0.0,93,-99.99,,,-99.99,PWS SA v1.10,2013-10-04 18:48:00,
2013-10-04 14:54:00,63.6,61.7,30.00,North,0,0.0,0.0,95,-99.99,,,-99.99,PWS SA v1.10,2013-10-04 18:54:00,
2013-10-04 15:00:00,63.3,61.3,30.00,North,0,0.0,0.0,95,-99.99,,,-99.99,PWS SA v1.10,2013-10-04 19:00:00,
2013-10-04 15:06:00,63.6,60.8,30.00,SSE,157,1.7,1.7,93,-99.99,,,-99.99,PWS SA v1.10,2013-10-04 19:06:00,
2013-10-04 15:12:00,63.0,59.9,29.99,North,0,0.0,1.0,91,-99.99,,,-99.99,PWS SA v1.10,2013-10-04 19:12:00,
2013-10-04 15:18:00,63.0,59.5,30.00,North,0,0.0,1.0,89,-99.99,,,-99.99,PWS SA v1.10,2013-10-04 19:18:00,
2013-10-04 15:24:00,63.1,61.3,30.00,North,0,0.0,0.0,96,-99.99,,,-99.99,PWS SA v1.10,2013-10-04 19:24:00,
2013-10-04 15:30:00,63.1,60.9,30.01,North,0,0.0,0.0,95,-99.99,,,-99.99,PWS SA v1.10,2013-10-04 19:30:00,
2013-10-04 15:36:00,62.5,60.0,30.00,North,0,0.0,0.0,93,-99.99,,,-99.99,PWS SA v1.10,2013-10-04 19:36:00,
2013-10-04 15:42:00,62.3,60.6,30.00,North,0,0.0,0.0,95,-99.99,,,-99.99,PWS SA v1.10,2013-10-04 19:42:00,
2013-10-04 15:48:00,62.9,61.3,30.00,North,0,0.0,0.0,97,-99.99,,,-99.99,PWS SA v1.10,2013-10-04 19:48:00,
2013-10-04 15:54:00,63.2,61.8,30.00,North,0,0.0,0.0,97,-99.99,,,-99.99,PWS SA v1.10,2013-10-04 19:54:00,
2013-10-04 16:00:00,63.3,61.3,30.00,North,0,0.0,0.0,95,-99.99,,,-99.99,PWS SA v1.10,2013-10-04 20:00:00,
2013-10-04 16:06:00,63.3,60.7,30.00,North,0,0.0,0.0,93,-99.99,,,-99.99,PWS SA v1.10,2013-10-04 20:06:00,
2013-10-04 16:12:00,63.6,61.5,30.00,North,0,0.0,0.0,95,-99.99,,,-99.99,PWS SA v1.10,2013-10-04 20:12:00,
2013-10-04 16:18:00,63.4,60.9,30.00,North,0,0.0,0.0,94,-99.99,,,-99.99,PWS SA v1.10,2013-10-04 20:18:00,
2013-10-04 16:24:00,63.1,60.8,30.01,North,0,0.0,0.0,93,-99.99,,,-99.99,PWS SA v1.10,2013-10-04 20:24:00,
2013-10-04 16:30:00,63.1,59.1,30.00,North,0,0.0,0.0,88,-99.99,,,-99.99,PWS SA v1.10,2013-10-04 20:30:00,
2013-10-04 16:36:00,62.8,59.3,30.00,North,0,0.0,0.0,90,-99.99,,,-99.99,PWS SA v1.10,2013-10-04 20:36:00,
2013-10-04 16:42:00,62.7,59.9,30.00,North,0,0.0,0.0,92,-99.99,,,-99.99,PWS SA v1.10,2013-10-04 20:42:00,
2013-10-04 16:48:00,62.5,60.2,30.00,North,0,0.0,0.0,94,-99.99,,,-99.99,PWS SA v1.10,2013-10-04 20:48:00,
2013-10-04 16:54:00,62.8,60.8,30.00,North,0,0.0,0.0,95,-99.99,,,-99.99,PWS SA v1.10,2013-10-04 20:54:00,
2013-10-04 17:00:00,63.0,61.5,30.00,North,0,0.0,0.0,96,-99.99,,,-99.99,PWS SA v1.10,2013-10-04 21:00:00,
2013-10-04 17:06:00,63.1,61.3,30.01,North,0,0.0,0.0,95,-99.99,,,-99.99,PWS SA v1.10,2013-10-04 21:06:00,
2013-10-04 17:12:00,62.7,61.2,30.00,North,0,0.0,0.0,96,-99.99,,,-99.99,PWS SA v1.10,2013-10-04 21:12:00,
2013-10-04 17:18:00,62.8,61.5,30.00,North,0,0.0,0.0,97,-99.99,,,-99.99,PWS SA v1.10,2013-10-04 21:18:00,
2013-10-04 17:24:00,62.7,61.5,30.00,North,0,0.0,0.0,98,-99.99,,,-99.99,PWS SA v1.10,2013-10-04 21:24:00,
2013-10-04 17:30:00,62.5,61.4,30.00,North,0,0.0,0.0,98,-99.99,,,-99.99,PWS SA v1.10,2013-10-04 21:30:00,
2013-10-04 17:36:00,62.5,61.4,30.00,North,0,0.0,0.0,98,-99.99,,,-99.99,PWS SA v1.10,2013-10-04 21:36:00,
2013-10-04 17:42:00,62.2,60.8,30.00,North,0,0.0,0.0,97,-99.99,,,-99.99,PWS SA v1.10,2013-10-04 21:42:00,
2013-10-04 17:48:00,62.2,61.1,30.01,North,0,0.0,0.0,98,-99.99,,,-99.99,PWS SA v1.10,2013-10-04 21:48:00,
2013-10-04 17:54:00,61.6,60.8,30.01,North,0,0.0,0.0,98,-99.99,,,-99.99,PWS SA v1.10,2013-10-04 21:54:00,
2013-10-04 18:00:00,61.4,60.6,30.01,North,0,0.0,0.0,99,-99.99,,,-99.99,PWS SA v1.10,2013-10-04 22:00:00,
2013-10-04 18:06:00,61.0,60.3,30.01,North,0,0.0,0.0,99,-99.99,,,-99.99,PWS SA v1.10,2013-10-04 22:06:00,
2013-10-04 18:12:00,60.6,59.9,30.00,North,0,0.0,0.0,99,-99.99,,,-99.99,PWS SA v1.10,2013-10-04 22:12:00,
2013-10-04 18:18:00,60.4,59.8,30.01,North,0,0.0,0.0,100,-99.99,,,-99.99,PWS SA v1.10,2013-10-04 22:18:00,
2013-10-04 18:24:00,60.4,59.9,30.01,North,0,0.0,0.0,100,-99.99,,,-99.99,PWS SA v1.10,2013-10-04 22:24:00,
2013-10-04 18:30:00,60.2,59.7,30.01,North,0,0.0,0.0,99,-99.99,,,-99.99,PWS SA v1.10,2013-10-04 22:30:00,
2013-10-04 18:36:00,60.0,59.4,30.00,North,0,0.0,0.0,100,-99.99,,,-99.99,PWS SA v1.10,2013-10-04 22:36:00,
2013-10-04 18:42:00,59.9,59.5,30.01,North,0,0.0,0.0,100,-99.99,,,-99.99,PWS SA v1.10,2013-10-04 22:42:00,
2013-10-04 18:48:00,60.0,59.6,30.01,North,0,0.0,0.0,100,-99.99,,,-99.99,PWS SA v1.10,2013-10-04 22:48:00,
2013-10-04 18:54:00,60.1,60.0,30.01,North,0,0.0,0.0,100,-99.99,,,-99.99,PWS SA v1.10,2013-10-04 22:54:00,
2013-10-04 19:00:00,60.1,59.6,30.01,North,0,0.0,0.0,100,-99.99,,,-99.99,PWS SA v1.10,2013-10-04 23:00:00,
2013-10-04 19:06:00,60.0,59.6,30.01,North,0,0.0,0.0,100,-99.99,,,-99.99,PWS SA v1.10,2013-10-04 23:06:00,
2013-10-04 19:12:00,59.9,59.3,30.00,North,0,0.0,0.0,100,-99.99,,,-99.99,PWS SA v1.10,2013-10-04 23:12:00,
2013-10-04 19:18:00,60.1,59.8,30.01,North,0,0.0,0.0,100,-99.99,,,-99.99,PWS SA v1.10,2013-10-04 23:18:00,
2013-10-04 19:24:00,60.1,59.8,30.01,North,0,0.0,0.0,100,-99.99,,,-99.99,PWS SA v1.10,2013-10-04 23:24:00,
2013-10-04 19:30:00,60.1,59.8,30.00,North,0,0.0,0.0,100,-99.99,,,-99.99,PWS SA v1.10,2013-10-04 23:30:00,
2013-10-04 19:36:00,60.2,60.0,30.01,North,0,0.0,0.0,100,-99.99,,,-99.99,PWS SA v1.10,2013-10-04 23:36:00,
2013-10-04 19:42:00,60.0,59.8,30.00,North,0,0.0,0.0,100,-99.99,,,-99.99,PWS SA v1.10,2013-10-04 23:42:00,
2013-10-04 19:48:00,60.0,59.8,30.01,North,0,0.0,0.0,100,-99.99,,,-99.99,PWS SA v1.10,2013-10-04 23:48:00,
2013-10-04 19:54:00,59.9,59.8,30.01,North,0,0.0,0.0,100,-99.99,,,-99.99,PWS SA v1.10,2013-10-04 23:54:00,
2013-10-04 20:00:00,59.8,59.3,30.03,North,0,0.0,0.0,100,-99.99,,,-99.99,PWS SA v1.10,2013-10-05 00:00:00,
2013-10-04 20:06:00,59.6,59.3,30.02,North,0,0.0,0.0,100,-99.99,,,-99.99,PWS SA v1.10,2013-10-05 00:06:00,
2013-10-04 20:12:00,59.5,59.2,30.02,North,0,0.0,0.0,100,-99.99,,,-99.99,PWS SA v1.10,2013-10-05 00:12:00,
2013-10-04 20:18:00,59.3,59.0,30.02,North,0,0.0,0.0,100,-99.99,,,-99.99,PWS SA v1.10,2013-10-05 00:18:00,
2013-10-04 20:24:00,59.2,59.1,30.01,North,0,0.0,0.0,100,-99.99,,,-99.99,PWS SA v1.10,2013-10-05 00:24:00,
2013-10-04 20:30:00,59.0,58.7,30.01,North,0,0.0,0.0,100,-99.99,,,-99.99,PWS SA v1.10,2013-10-05 00:30:00,
2013-10-04 20:36:00,59.0,58.7,30.01,North,0,0.0,0.0,100,-99.99,,,-99.99,PWS SA v1.10,2013-10-05 00:36:00,
2013-10-04 20:42:00,59.0,58.7,30.01,North,0,0.0,0.0,100,-99.99,,,-99.99,PWS SA v1.10,2013-10-05 00:42:00,
2013-10-04 20:48:00,58.8,58.5,30.02,North,0,0.0,0.0,100,-99.99,,,-99.99,PWS SA v1.10,2013-10-05 00:48:00,
2013-10-04 20:54:00,58.8,58.4,30.02,North,0,0.0,0.0,100,-99.99,,,-99.99,PWS SA v1.10,2013-10-05 00:54:00,
2013-10-04 21:00:00,58.9,58.7,30.02,North,0,0.0,0.0,100,-99.99,,,-99.99,PWS SA v1.10,2013-10-05 01:00:00,
2013-10-04 21:06:00,58.8,58.7,30.02,North,0,0.0,0.0,100,-99.99,,,-99.99,PWS SA v1.10,2013-10-05 01:06:00,
2013-10-04 21:12:00,58.7,58.4,30.03,North,0,0.0,0.0,100,-99.99,,,-99.99,PWS SA v1.10,2013-10-05 01:12:00,
2013-10-04 21:18:00,58.7,58.4,30.03,North,0,0.0,0.0,100,-99.99,,,-99.99,PWS SA v1.10,2013-10-05 01:18:00,
2013-10-04 21:24:00,58.3,58.0,30.03,North,0,0.0,0.0,100,-99.99,,,-99.99,PWS SA v1.10,2013-10-05 01:24:00,
2013-10-04 21:30:00,58.2,57.9,30.03,North,0,0.0,0.0,100,-99.99,,,-99.99,PWS SA v1.10,2013-10-05 01:30:00,
2013-10-04 21:36:00,58.0,57.7,30.03,North,0,0.0,0.0,100,-99.99,,,-99.99,PWS SA v1.10,2013-10-05 01:36:00,
2013-10-04 21:42:00,58.0,57.9,30.03,North,0,0.0,0.0,100,-99.99,,,-99.99,PWS SA v1.10,2013-10-05 01:42:00,
2013-10-04 21:48:00,58.0,57.7,30.03,North,0,0.0,0.0,100,-99.99,,,-99.99,PWS SA v1.10,2013-10-05 01:48:00,
2013-10-04 21:54:00,58.0,57.8,30.03,North,0,0.0,0.0,100,-99.99,,,-99.99,PWS SA v1.10,2013-10-05 01:54:00,
2013-10-04 22:00:00,58.0,57.6,30.03,North,0,0.0,0.0,100,-99.99,,,-99.99,PWS SA v1.10,2013-10-05 02:00:00,
2013-10-04 22:06:00,57.8,57.7,30.02,North,0,0.0,0.0,100,-99.99,,,-99.99,PWS SA v1.10,2013-10-05 02:06:00,
2013-10-04 22:12:00,57.8,57.5,30.03,North,0,0.0,0.0,100,-99.99,,,-99.99,PWS SA v1.10,2013-10-05 02:12:00,
2013-10-04 22:18:00,57.9,57.5,30.03,North,0,0.0,0.0,100,-99.99,,,-99.99,PWS SA v1.10,2013-10-05 02:18:00,
2013-10-04 22:24:00,58.0,57.8,30.02,North,0,0.0,0.0,100,-99.99,,,-99.99,PWS SA v1.10,2013-10-05 02:24:00,
2013-10-04 22:30:00,58.0,57.8,30.02,North,0,0.0,0.0,100,-99.99,,,-99.99,PWS SA v1.10,2013-10-05 02:30:00,
2013-10-04 22:36:00,58.1,57.9,30.02,North,0,0.0,0.0,100,-99.99,,,-99.99,PWS SA v1.10,2013-10-05 02:36:00,
2013-10-04 22:42:00,58.2,58.0,30.03,North,0,0.0,0.0,100,-99.99,,,-99.99,PWS SA v1.10,2013-10-05 02:42:00,
2013-10-04 22:48:00,58.3,58.0,30.03,North,0,0.0,0.0,100,-99.99,,,-99.99,PWS SA v1.10,2013-10-05 02:48:00,
2013-10-04 22:54:00,58.6,58.5,30.03,North,0,0.0,0.0,100,-99.99,,,-99.99,PWS SA v1.10,2013-10-05 02:54:00,
2013-10-04 23:00:00,58.5,58.3,30.03,North,0,0.0,0.0,100,-99.99,,,-99.99,PWS SA v1.10,2013-10-05 03:00:00,
2013-10-04 23:06:00,58.4,58.0,30.03,North,0,0.0,0.0,100,-99.99,,,-99.99,PWS SA v1.10,2013-10-05 03:06:00,
2013-10-04 23:12:00,58.4,58.0,30.02,North,0,0.0,0.0,100,-99.99,,,-99.99,PWS SA v1.10,2013-10-05 03:12:00,
2013-10-04 23:18:00,58.5,58.3,30.02,North,0,0.0,0.0,100,-99.99,,,-99.99,PWS SA v1.10,2013-10-05 03:18:00,
2013-10-04 23:24:00,58.5,58.3,30.02,North,0,0.0,0.0,100,-99.99,,,-99.99,PWS SA v1.10,2013-10-05 03:24:00,
2013-10-04 23:30:00,58.7,58.5,30.02,North,0,0.0,0.0,100,-99.99,,,-99.99,PWS SA v1.10,2013-10-05 03:30:00,
2013-10-04 23:36:00,58.7,58.6,30.02,North,0,0.0,0.0,100,-99.99,,,-99.99,PWS SA v1.10,2013-10-05 03:36:00,
2013-10-04 23:42:00,58.9,58.7,30.03,North,0,0.0,0.0,100,-99.99,,,-99.99,PWS SA v1.10,2013-10-05 03:42:00,
2013-10-04 23:48:00,58.7,58.6,30.03,North,0,0.0,0.0,100,-99.99,,,-99.99,PWS SA v1.10,2013-10-05 03:48:00,
2013-10-04 23:54:00,58.9,58.7,30.02,North,0,0.0,0.0,100,-99.99,,,-99.99,PWS SA v1.10,2013-10-05 03:54:00,